NOAA 16 DEB, 42426

Orbit data source: Space-Track

NOAA 16 DEB, 42426 is space debris in SSO originally from a launch on Thu, 21 Sep 2000 UTC launched from the Air Force Western Test Range (AFWTR). Debris objects in space refer to the collection of defunct objects orbiting the Earth. Examples of debris include non-operational satellites, rocket bodies, and fragments generated from explosions, collisions, or faulty payload assembly.

Loading next visibility...
Identifier
42426, 2000-055TW
Orbit
SSO
Country
Flag of USUS
Related business
Manufacturer
Unknown
Mission
Spacecraft
Bus & Motor
Unknown
Mass
Unknown
Launch date (UTC)
2000-09-21 (25 years ago)
Launch vehicle
Unknown
Launch site
Air Force Western Test Range (AFWTR)
Object type
Payload
Rocket body
Debris
Shape & HBR
Unknown shape, 0.1 m
Radar Cross Section
Small (<0.1 m²)

Expand to show TLE details & history
Last TLE update: 2 weeks ago

TLE from 2 weeks ago
0 NOAA 16 DEB
1 42426U 00055TW  25339.31938297  .00007012  00000-0  30526-2 0  9990
2 42426  98.5911   1.6010 0012097 352.9987   7.1021 14.24261014480652
Epoch: 2025-12-05T07:39Z
TLE epoch observation values (Epoch: 2025-12-05T07:39:54.688Z)
Latitude
-0.00007°
Longitude
172.25997°
Altitude
805.271 km
Speed
7.455 km/s
True Right ascension
00h 06m 24s
True Declination
0° 00' 00"
Sunlit
Object was in daylight at epoch
Visualization orbit readout
Latitude
Unknown
Longitude
Unknown
Altitude
Unknown
Speed
Unknown
Apparent Right ascension
Unknown
Apparent Declination
Unknown
Sunlit
N/A
Visualization observer readout
Local Sidereal Time
06:11:38
Azimuth
Unknown
Elevation
Unknown
Doppler factor
Unknown
Orbital elements
Apogee altitude
816.819 km
Perigee altitude
799.432 km
Semi-major axis
7,186.263 km
Eccentricity
0.00121
Inclination
98.5911°
RAAN
1.601°
Arg. of periapsis
352.9987°
True anomaly
7.11926°
Mean anomaly
7.1021°
Eccentric anomaly
7.11068°
Mean motion
3.56278 °/min
Orbital period
101.04 mins
BSTAR
0.0030526
Loading maneuver chart data...
Computing Atmospheric mass density...
Loading historical data...
Loading historical data...
Loading historical data...
Loading historical data...
Loading historical data...
Loading historical data...
Loading historical data...

Documentation

Showing up to 5 results
|